OBJECT A, 60012

Orbit data source: Space-Track

You're viewing an Uncataloged Satellite

Recently launched and/or uncataloged satellites may have evolving metadata. Metadata may include but not limited to: Owner, Maufacturer, Bus, Motor, and Mission.

OBJECT A, 60012 is a Chinese satellite in SSO that was launched on Thu, 06 Jun 2024 UTC via a GUSHENXING 1 launch vehicle from the Jiuquan Satellite Launch Center, China (JSC). Unknown objects in Earth's orbit typically refer to objects detected orbiting the Earth but have not yet been identified or cataloged. These objects could be anything from previously untracked satellites, spent rocket stages, debris from satellite collisions, or even natural meteoroids temporarily captured by Earth's gravity.

Loading next visibility...
Identifier
60012, 2024-110A
Orbit
SSO
Last TLE update
6 hours ago
Origin
Flag of CNBeijing Mumei Xingkong Keji YG (CN / PRC)
Manufacturer
Changguang WJ
Mission
Operational spacecraft
Bus & Motor
JL1GF4, Unknown motor
Mass
~112 kg wet, ~112 kg dry
Launch date (UTC)
2024-06-06 (1 year ago)
Launch vehicle
GUSHENXING 1
Launch site
Jiuquan Satellite Launch Center, China (JSC)
Object type
Unknown
Shape & HBR
Unknown
Radar Cross Section
Medium (>0.1 m² and <1 m²)

Expand to show TLE details & history

TLE from 6 hours ago
0 OBJECT A
1 60012U 24110A   25182.84951834  .00006273  00000-0  36320-3 0  9992
2 60012  97.5827 272.2490 0013250 201.3123 158.7557 15.12512063 58960
Epoch: 2025-07-01T20:23Z
TLE epoch observation values (Epoch: 2025-07-01T20:23:18.384Z)
Latitude
-0.00007°
Longitude
46.28334°
Altitude
540.15 km
Speed
7.588 km/s
True Right ascension
18h 08m 59s
True Declination
0° 00' 00"
Sunlit
Object was in full shadow at epoch
Visualization orbit readout
Latitude
-46.70707°
Longitude
-141.5563°
Altitude
538.455 km
Speed
7.596 km/s
Apparent Right ascension
03h 41m 59s
Apparent Declination
-46° 56' 43"
Sunlit
Object is in daylight
Visualization observer readout
Local Sidereal Time
13:50:09
Azimuth
241.539° WSW
Elevation
-68.65°
Doppler factor
1
Orbital elements
Apogee altitude
534.673 km
Perigee altitude
516.378 km
Semi-major axis
6,903.663 km
Eccentricity
0.00133
Inclination
97.5827°
RAAN
272.249°
Arg. of periapsis
201.3123°
True anomaly
Unknown
Mean anomaly
158.7557°
Eccentric anomaly
Unknown
Mean motion
3.78376 °/min
Orbital period
95.14 mins
BSTAR
0.0003632
Loading maneuver chart data...
Loading SW <> Apogee altitude chart data...
Loading historical data...
Loading historical data...
Loading historical data...
Loading historical data...
Loading historical data...
Loading historical data...
Loading historical data...
Other satellites on launch #110 in the year 2024 (2024-06-06 UTC)

OBJECT A Visibility forecast

Observer location: undefined°, undefined°

Span
Click to sort rows by Start time (UTC) header in descending order
Start Az.
Max El. time (UTC)
Max El. Az.
Max El.
End time (UTC)
End Az.
7 mins2025-07-02 06:02:07.953Z168.849° S2025-07-02 06:05:07.953Z181.85° SSW43.173°2025-07-02 06:09:07.953Z346.553° N
7 mins2025-07-02 19:10:07.953Z0.814° NNE2025-07-02 19:14:07.953Z264.337° W36.299°2025-07-02 19:17:07.953Z211.743° SW
|